Location: Alfortville
(48.8058°N, 2.4204°E)
Time: 23:35:40
(UTC+00:00)

LilacSat-2 - Visible Passes

Search period start: 15 February 2026 00:00
Search period end: 25 February 2026 00:00
Orbit: 420 x 430 km, 97.5° (Epoch: 15 February)

Date Brightness Start Highest point End Pass type
(mag) Time Alt. Az. Time Alt. Az. Time Alt. Az.
15 Feb ? 19:05:54 10° S 19:09:02 49° W 19:12:13 10° NNW visible
16 Feb ? 18:23:24 10° SE 18:26:29 43° ENE 18:29:36 10° N visible
16 Feb ? 19:57:28 10° WSW 19:58:58 13° W 20:00:28 10° WNW visible
17 Feb ? 19:13:01 10° S 19:16:05 40° W 19:19:11 10° NNW visible
18 Feb ? 18:30:16 10° SSE 18:33:25 53° ENE 18:36:38 10° N visible
18 Feb ? 20:05:17 10° WSW 20:06:01 11° W 20:06:43 10° WNW visible
19 Feb ? 17:48:49 10° ESE 17:51:00 17° ENE 17:53:12 10° NNE visible
19 Feb ? 19:20:04 10° SSW 19:23:01 33° W 19:26:01 10° NNW visible
20 Feb ? 18:37:04 10° SSE 18:40:16 65° ENE 18:43:31 10° N visible
21 Feb ? 17:55:19 10° ESE 17:57:45 20° ENE 18:00:12 10° NNE visible
21 Feb ? 19:27:01 10° SSW 19:29:51 27° W 19:32:42 10° NW visible
22 Feb ? 18:43:46 10° SSE 18:47:00 79° ENE 18:50:17 10° N visible
23 Feb ? 18:01:46 10° ESE 18:04:23 23° ENE 18:07:03 10° NNE visible
23 Feb ? 19:33:54 10° SSW 19:36:34 23° W 19:39:15 10° NW visible
24 Feb ? 18:50:23 10° SSE 18:53:38 85° WSW 18:56:55 10° NNW visible
